| time (UTC) | temp C | wind direction | speed KPH | gust KPH | rain 1hr cm | rain 24hr cm | rain mn cm | humidity % | barometer mb |
| 20260906072306 | 20 | 55 | 0.0 | 0.0 | 0.00 | 1.55 | 0.00 | 100 | 1009.6 |
| 20260906071805 | 20 | 55 | 0.0 | 0.0 | 0.00 | 1.55 | 0.00 | 100 | 1009.6 |
| 20260906071305 | 20 | 55 | 0.0 | 0.0 | 0.00 | 1.55 | 0.00 | 100 | 1009.7 |
| 20260906065804 | 20 | 55 | 0.0 | 0.0 | 0.00 | 1.55 | 0.00 | 100 | 1009.7 |
| 20260906065305 | 20 | 55 | 0.0 | 0.0 | 0.00 | 1.55 | 0.00 | 100 | 1009.9 |
| 20260906064804 | 20 | 55 | 0.0 | 0.0 | 0.00 | 1.55 | 0.00 | 100 | 1010.0 |
| 20260906064304 | 20 | 55 | 0.0 | 0.0 | 0.00 | 1.55 | 0.00 | 100 | 1010.0 |
| 20260906063804 | 20 | 55 | 0.0 | 0.0 | 0.00 | 1.55 | 0.00 | 100 | 1010.1 |
| 20260906063304 | 20 | 55 | 0.0 | 0.0 | 0.00 | 1.55 | 0.00 | 100 | 1010.1 |
| 20260906062804 | 20 | 55 | 0.0 | 0.0 | 0.00 | 1.55 | 0.00 | 100 | 1010.2 |
| 20260906061804 | 20 | 55 | 0.0 | 0.0 | 0.00 | 1.55 | 0.00 | 100 | 1010.2 |
| 20260906061304 | 20 | 55 | 0.0 | 0.0 | 0.00 | 1.55 | 0.00 | 100 | 1010.1 |
| 20260906060804 | 20 | 55 | 0.0 | 0.0 | 0.00 | 1.55 | 0.00 | 100 | 1010.3 |
| 20260906060304 | 20 | 55 | 0.0 | 0.0 | 0.00 | 1.55 | 0.00 | 100 | 1010.4 |
| 20260906055804 | 20 | 55 | 0.0 | 0.0 | 0.00 | 1.55 | 0.00 | 100 | 1010.5 |
| 20260906055306 | 20 | 55 | 0.0 | 0.0 | 0.00 | 1.55 | 0.00 | 100 | 1010.5 |
| 20260906054804 | 20 | 55 | 0.0 | 0.0 | 0.00 | 1.55 | 0.00 | 100 | 1010.5 |
| 20260906053304 | 20 | 55 | 0.0 | 0.0 | 0.00 | 1.55 | 0.00 | 100 | 1010.6 |
| 20260906052807 | 20 | 55 | 0.0 | 0.0 | 0.00 | 1.55 | 0.00 | 100 | 1010.6 |
| 20260906051305 | 21 | 55 | 0.0 | 0.0 | 0.00 | 1.55 | 0.00 | 100 | 1010.8 |
| 20260906050805 | 21 | 55 | 0.0 | 0.0 | 0.00 | 1.55 | 0.00 | 100 | 1010.7 |
| 20260906050305 | 21 | 55 | 0.0 | 0.0 | 0.00 | 1.55 | 0.00 | 100 | 1010.7 |
| 20260906045751 | 21 | 55 | 0.0 | 0.0 | 0.00 | 1.55 | 0.00 | 100 | 1010.6 |
| 20260906044752 | 21 | 55 | 0.0 | 0.0 | 0.00 | 1.55 | 0.00 | 100 | 1010.7 |
| 20260906044252 | 21 | 55 | 0.0 | 0.0 | 0.00 | 1.55 | 0.00 | 100 | 1010.6 |
| 20260906043751 | 21 | 55 | 0.0 | 0.0 | 0.00 | 1.55 | 0.00 | 100 | 1010.6 |
| 20260906043252 | 21 | 55 | 0.0 | 0.0 | 0.00 | 1.55 | 0.00 | 100 | 1010.5 |
| 20260906042752 | 21 | 55 | 0.0 | 0.0 | 0.00 | 1.55 | 0.00 | 100 | 1010.5 |
| 20260906042252 | 21 | 55 | 0.0 | 0.0 | 0.03 | 1.55 | 0.00 | 100 | 1010.4 |
| 20260906041252 | 21 | 55 | 0.0 | 0.0 | 0.03 | 1.55 | 0.00 | 100 | 1010.5 |
| 20260906040803 | 21 | 55 | 0.0 | 0.0 | 0.03 | 1.55 | 0.00 | 100 | 1010.5 |
| 20260906040252 | 21 | 55 | 0.0 | 0.0 | 0.03 | 1.55 | 0.00 | 100 | 1010.4 |
| 20260906035751 | 21 | 55 | 0.0 | 0.0 | 0.03 | 1.55 | 1.55 | 100 | 1010.5 |
| 20260906035252 | 21 | 55 | 0.0 | 0.0 | 0.03 | 1.55 | 1.55 | 100 | 1010.6 |
| 20260906034754 | 21 | 55 | 0.0 | 0.0 | 0.03 | 1.55 | 1.55 | 100 | 1010.6 |
| 20260906034252 | 21 | 55 | 0.0 | 0.0 | 0.03 | 1.55 | 1.55 | 100 | 1010.4 |
| 20260906033251 | 21 | 55 | 0.0 | 0.0 | 0.03 | 1.55 | 1.55 | 100 | 1010.5 |
| 20260906032752 | 21 | 55 | 0.0 | 0.0 | 0.03 | 1.55 | 1.55 | 100 | 1010.6 |
| 20260906031752 | 21 | 55 | 0.0 | 0.0 | 0.00 | 1.52 | 1.52 | 99 | 1010.6 |
| 20260906031252 | 22 | 55 | 0.0 | 0.0 | 0.00 | 1.52 | 1.52 | 99 | 1010.7 |
| 20260906025252 | 22 | 323 | 0.0 | 0.0 | 0.00 | 1.52 | 1.52 | 98 | 1010.9 |
| 20260906024752 | 22 | 318 | 0.0 | 0.0 | 0.00 | 1.52 | 1.52 | 99 | 1010.7 |
| 20260906024252 | 22 | 318 | 0.0 | 0.0 | 0.00 | 1.52 | 1.52 | 99 | 1010.8 |
| 20260906023252 | 22 | 209 | 0.0 | 4.8 | 0.00 | 1.52 | 1.52 | 99 | 1011.0 |
| 20260906022751 | 22 | 155 | 0.0 | 0.0 | 0.00 | 1.52 | 1.52 | 98 | 1011.0 |
| 20260906022252 | 22 | 120 | 0.0 | 0.0 | 0.00 | 1.52 | 1.52 | 97 | 1010.6 |
| 20260906021752 | 22 | 120 | 0.0 | 0.0 | 0.00 | 1.52 | 1.52 | 97 | 1010.5 |
| 20260906020754 | 22 | 120 | 0.0 | 0.0 | 0.00 | 1.52 | 1.52 | 96 | 1010.5 |
| 20260906020252 | 22 | 120 | 0.0 | 0.0 | 0.00 | 1.52 | 1.52 | 96 | 1010.5 |
| 20260906015252 | 22 | 120 | 0.0 | 0.0 | 0.00 | 1.52 | 1.52 | 96 | 1010.5 |
| 20260906014752 | 22 | 120 | 0.0 | 0.0 | 0.00 | 1.52 | 1.52 | 96 | 1010.5 |
| 20260906013751 | 22 | 120 | 0.0 | 0.0 | 0.00 | 1.52 | 1.52 | 96 | 1010.4 |
| 20260906012752 | 22 | 120 | 0.0 | 0.0 | 0.00 | 1.52 | 1.52 | 97 | 1010.1 |
| 20260906012251 | 22 | 120 | 0.0 | 0.0 | 0.00 | 1.52 | 1.52 | 96 | 1010.1 |
| 20260906011752 | 22 | 120 | 0.0 | 0.0 | 0.00 | 1.52 | 1.52 | 96 | 1010.1 |
| 20260906011252 | 22 | 120 | 0.0 | 0.0 | 0.00 | 1.52 | 1.52 | 96 | 1010.1 |
| 20260906010752 | 22 | 120 | 0.0 | 0.0 | 0.00 | 1.52 | 1.52 | 96 | 1010.0 |
| 20260906005752 | 22 | 120 | 0.0 | 0.0 | 0.00 | 1.52 | 1.52 | 94 | 1010.0 |
| 20260906005252 | 22 | 120 | 0.0 | 0.0 | 0.00 | 1.52 | 1.52 | 94 | 1010.0 |
| 20260906004752 | 22 | 120 | 0.0 | 0.0 | 0.00 | 1.52 | 1.52 | 93 | 1010.0 |
| 20260906004252 | 22 | 120 | 0.0 | 0.0 | 0.00 | 1.52 | 1.52 | 92 | 1010.0 |
| 20260906003752 | 22 | 120 | 0.0 | 0.0 | 0.00 | 1.52 | 1.52 | 92 | 1009.9 |
| 20260906003252 | 23 | 120 | 0.0 | 0.0 | 0.00 | 1.52 | 1.52 | 92 | 1009.8 |
| 20260906002752 | 23 | 120 | 0.0 | 0.0 | 0.00 | 1.52 | 1.52 | 91 | 1009.6 |
| 20260906001752 | 23 | 120 | 0.0 | 0.0 | 0.00 | 1.52 | 1.52 | 90 | 1009.7 |
| 20260906001252 | 23 | 120 | 0.0 | 0.0 | 0.00 | 1.52 | 1.52 | 90 | 1009.6 |
| 20260906000752 | 23 | 120 | 0.0 | 0.0 | 0.00 | 1.52 | 1.52 | 89 | 1009.6 |
| 20260906000252 | 23 | 120 | 0.0 | 0.0 | 0.00 | 1.52 | 1.52 | 88 | 1009.6 |
| 20260905235252 | 24 | 120 | 0.0 | 0.0 | 0.00 | 1.52 | 1.52 | 86 | 1009.5 |
| 20260905234752 | 25 | 120 | 0.0 | 0.0 | 0.00 | 1.52 | 1.52 | 85 | 1009.4 |
| 20260905234252 | 25 | 112 | 0.0 | 0.0 | 0.00 | 1.52 | 1.52 | 83 | 1009.4 |
| 20260905233752 | 25 | 251 | 0.0 | 0.0 | 0.03 | 1.52 | 1.52 | 83 | 1009.4 |
| 20260905233252 | 26 | 251 | 0.0 | 0.0 | 0.03 | 1.52 | 1.52 | 81 | 1009.4 |
| 20260905232752 | 26 | 251 | 0.0 | 0.0 | 0.03 | 1.52 | 1.52 | 77 | 1009.4 |
| 20260905232252 | 26 | 251 | 0.0 | 0.0 | 0.03 | 1.52 | 1.52 | 76 | 1009.4 |
| 20260905231752 | 27 | 251 | 0.0 | 0.0 | 0.03 | 1.52 | 1.52 | 72 | 1009.4 |
| 20260905231252 | 28 | 241 | 0.0 | 0.0 | 0.03 | 1.52 | 1.52 | 70 | 1009.4 |
| 20260905230752 | 28 | 241 | 0.0 | 0.0 | 0.03 | 1.52 | 1.52 | 68 | 1009.4 |
| 20260905230252 | 29 | 289 | 0.0 | 0.0 | 0.03 | 1.52 | 1.52 | 67 | 1009.4 |
| 20260905225752 | 30 | 288 | 0.0 | 0.0 | 0.03 | 1.52 | 1.52 | 62 | 1009.7 |
| 20260905225252 | 30 | 288 | 0.0 | 0.0 | 0.03 | 1.52 | 1.52 | 63 | 1009.6 |
| 20260905224752 | 30 | 288 | 0.0 | 0.0 | 0.03 | 1.52 | 1.52 | 63 | 1009.6 |
| 20260905223752 | 31 | 288 | 0.0 | 0.0 | 0.00 | 1.50 | 1.50 | 54 | 1009.6 |
| 20260905223252 | 31 | 288 | 0.0 | 0.0 | 0.00 | 1.50 | 1.50 | 55 | 1009.5 |
| 20260905222752 | 31 | 323 | 0.0 | 0.0 | 0.03 | 1.50 | 1.50 | 54 | 1009.7 |
| 20260905222252 | 31 | 275 | 0.0 | 1.6 | 0.03 | 1.50 | 1.50 | 53 | 1009.7 |
| 20260905221752 | 31 | 280 | 0.0 | 0.0 | 0.03 | 1.50 | 1.50 | 52 | 1009.6 |
| 20260905220753 | 30 | 188 | 0.0 | 3.2 | 0.03 | 1.50 | 1.50 | 52 | 1009.5 |
| 20260905220253 | 30 | 278 | 3.2 | 8.0 | 0.03 | 1.50 | 1.50 | 54 | 1009.5 |
| 20260905215753 | 30 | 282 | 0.0 | 9.7 | 0.03 | 1.50 | 1.50 | 55 | 1009.6 |
| 20260905215253 | 30 | 280 | 3.2 | 14.5 | 0.03 | 1.50 | 1.50 | 55 | 1009.4 |
| 20260905214752 | 30 | 250 | 9.7 | 14.5 | 0.03 | 1.50 | 1.50 | 54 | 1009.4 |
| 20260905213752 | 30 | 264 | 4.8 | 9.7 | 0.05 | 1.50 | 1.50 | 55 | 1009.6 |
| 20260905213253 | 30 | 267 | 0.0 | 0.0 | 0.05 | 1.50 | 1.50 | 57 | 1009.5 |
| 20260905212252 | 30 | 225 | 6.4 | 11.3 | 0.03 | 1.47 | 1.47 | 57 | 1009.8 |
| 20260905211752 | 30 | 281 | 4.8 | 9.7 | 0.03 | 1.47 | 1.47 | 54 | 1009.8 |
| 20260905210252 | 30 | 267 | 4.8 | 11.3 | 0.05 | 1.47 | 1.47 | 59 | 1009.7 |
| 20260905205753 | 30 | 271 | 1.6 | 14.5 | 0.05 | 1.47 | 1.47 | 60 | 1009.7 |
| 20260905205253 | 30 | 276 | 3.2 | 11.3 | 0.05 | 1.47 | 1.47 | 60 | 1009.7 |
| 20260905204252 | 30 | 195 | 4.8 | 11.3 | 0.03 | 1.45 | 1.45 | 61 | 1009.7 |
| 20260905203752 | 30 | 272 | 1.6 | 14.5 | 0.05 | 1.45 | 1.45 | 58 | 1009.7 |
| 20260905203252 | 30 | 280 | 0.0 | 3.2 | 0.05 | 1.45 | 1.45 | 60 | 1009.7 |
| 20260905202752 | 30 | 259 | 8.0 | 11.3 | 0.05 | 1.45 | 1.45 | 57 | 1009.9 |
| 20260905202252 | 29 | 289 | 0.0 | 0.0 | 0.05 | 1.45 | 1.45 | 55 | 1010.0 |
| 20260905201752 | 29 | 293 | 0.0 | 8.0 | 0.08 | 1.45 | 1.45 | 58 | 1010.0 |
| 20260905201253 | 29 | 241 | 1.6 | 4.8 | 0.08 | 1.45 | 1.45 | 59 | 1010.2 |
| 20260905200752 | 28 | 283 | 1.6 | 4.8 | 0.05 | 1.42 | 1.42 | 60 | 1010.3 |
| 20260905200252 | 28 | 242 | 0.0 | 0.0 | 0.08 | 1.42 | 1.42 | 57 | 1010.3 |
| 20260905195752 | 28 | 244 | 4.8 | 8.0 | 0.08 | 1.42 | 1.42 | 59 | 1010.3 |
| 20260905195254 | 28 | 225 | 0.0 | 0.0 | 0.08 | 1.42 | 1.42 | 63 | 1010.3 |
| 20260905194753 | 28 | 225 | 0.0 | 0.0 | 0.10 | 1.42 | 1.42 | 60 | 1010.3 |
| 20260905194252 | 27 | 235 | 0.0 | 0.0 | 0.10 | 1.42 | 1.42 | 64 | 1010.4 |
| 20260905193752 | 27 | 270 | 0.0 | 0.0 | 0.08 | 1.40 | 1.40 | 65 | 1010.7 |
| 20260905193252 | 27 | 242 | 0.0 | 0.0 | 0.10 | 1.40 | 1.40 | 65 | 1010.7 |
| 20260905192253 | 26 | 261 | 3.2 | 4.8 | 0.10 | 1.40 | 1.40 | 66 | 1010.9 |
| 20260905190753 | 26 | 229 | 0.0 | 0.0 | 0.13 | 1.37 | 1.37 | 74 | 1010.9 |
| 20260905190252 | 26 | 229 | 0.0 | 0.0 | 0.10 | 1.35 | 1.35 | 73 | 1011.0 |
| 20260905185753 | 26 | 229 | 0.0 | 0.0 | 0.13 | 1.35 | 1.35 | 75 | 1011.1 |
| 20260905185253 | 25 | 229 | 0.0 | 0.0 | 0.15 | 1.35 | 1.35 | 76 | 1011.0 |
| 20260905184752 | 25 | 216 | 0.0 | 0.0 | 0.13 | 1.32 | 1.32 | 79 | 1011.2 |
| 20260905184252 | 24 | 166 | 0.0 | 0.0 | 0.15 | 1.32 | 1.32 | 81 | 1011.4 |
| 20260905183253 | 23 | 112 | 0.0 | 0.0 | 0.20 | 1.30 | 1.30 | 83 | 1011.5 |
| 20260905182752 | 23 | 103 | 0.0 | 0.0 | 0.23 | 1.30 | 1.30 | 86 | 1011.8 |
| 20260905182252 | 22 | 98 | 0.0 | 0.0 | 0.28 | 1.30 | 1.30 | 92 | 1011.7 |
| 20260905181253 | 22 | 85 | 0.0 | 4.8 | 0.36 | 1.27 | 1.27 | 92 | 1012.0 |
| 20260905180752 | 21 | 76 | 3.2 | 8.0 | 0.38 | 1.24 | 1.24 | 96 | 1012.1 |
| 20260905180252 | 21 | 30 | 0.0 | 4.8 | 0.48 | 1.24 | 1.24 | 99 | 1012.3 |
| 20260905175752 | 21 | 18 | 0.0 | 0.0 | 0.53 | 1.22 | 1.22 | 98 | 1012.4 |
| 20260905174752 | 21 | 18 | 0.0 | 0.0 | 0.71 | 1.19 | 1.19 | 98 | 1012.6 |
| 20260905173753 | 20 | 27 | 3.2 | 9.7 | 0.86 | 1.14 | 1.14 | 98 | 1013.0 |
| 20260905173253 | 20 | 15 | 0.0 | 1.6 | 0.89 | 1.09 | 1.09 | 96 | 1013.3 |
| 20260905172753 | 20 | 235 | 4.8 | 9.7 | 1.02 | 1.07 | 1.07 | 96 | 1013.4 |
| 20260905172253 | 20 | 94 | 0.0 | 0.0 | 1.02 | 1.02 | 1.02 | 95 | 1013.6 |
| 20260905171752 | 20 | 94 | 0.0 | 0.0 | 0.99 | 0.99 | 0.99 | 94 | 1013.6 |
| 20260905171252 | 20 | 94 | 0.0 | 0.0 | 0.91 | 0.91 | 0.91 | 94 | 1013.8 |
| 20260905170752 | 20 | 92 | 0.0 | 4.8 | 0.86 | 0.86 | 0.86 | 94 | 1014.0 |
| 20260905165752 | 20 | 163 | 1.6 | 11.3 | 0.69 | 0.69 | 0.69 | 91 | 1014.0 |
| 20260905165252 | 20 | 113 | 4.8 | 19.3 | 0.58 | 0.58 | 0.58 | 90 | 1014.3 |
| 20260905164252 | 21 | 75 | 6.4 | 19.3 | 0.38 | 0.38 | 0.38 | 86 | 1013.1 |
| 20260905163753 | 21 | 51 | 20.9 | 40.2 | 0.28 | 0.28 | 0.28 | 88 | 1013.1 |
| 20260905163253 | 22 | 20 | 19.3 | 41.8 | 0.20 | 0.20 | 0.20 | 87 | 1014.0 |
| 20260905162753 | 24 | 23 | 16.1 | 40.2 | 0.05 | 0.05 | 0.05 | 80 | 1013.7 |
| 20260905161753 | 31 | 294 | 0.0 | 16.1 | 0.00 | 0.00 | 0.00 | 60 | 1013.1 |
| 20260905161253 | 31 | 307 | 1.6 | 8.0 | 0.00 | 0.00 | 0.00 | 59 | 1012.2 |
| 20260905160753 | 31 | 294 | 0.0 | 0.0 | 0.00 | 0.00 | 0.00 | 57 | 1011.8 |
| 20260905160253 | 31 | 210 | 0.0 | 3.2 | 0.00 | 0.00 | 0.00 | 60 | 1012.0 |
| 20260905155752 | 31 | 262 | 1.6 | 9.7 | 0.00 | 0.00 | 0.00 | 60 | 1012.2 |
| 20260905155253 | 31 | 277 | 4.8 | 11.3 | 0.00 | 0.00 | 0.00 | 61 | 1012.3 |
| 20260905154253 | 30 | 269 | 3.2 | 9.7 | 0.00 | 0.00 | 0.00 | 61 | 1012.3 |
| 20260905153753 | 30 | 292 | 1.6 | 4.8 | 0.00 | 0.00 | 0.00 | 62 | 1012.2 |
| 20260905152753 | 30 | 263 | 4.8 | 8.0 | 0.00 | 0.00 | 0.00 | 63 | 1012.2 |
| 20260905152252 | 30 | 227 | 0.0 | 4.8 | 0.00 | 0.00 | 0.00 | 64 | 1012.2 |
| 20260905151752 | 30 | 217 | 4.8 | 11.3 | 0.00 | 0.00 | 0.00 | 64 | 1012.1 |
| 20260905151252 | 29 | 272 | 3.2 | 12.9 | 0.00 | 0.00 | 0.00 | 65 | 1012.2 |
| 20260905150252 | 29 | 277 | 4.8 | 14.5 | 0.00 | 0.00 | 0.00 | 64 | 1012.2 |
| 20260905145753 | 29 | 262 | 4.8 | 11.3 | 0.00 | 0.00 | 0.00 | 65 | 1012.1 |
| 20260905144753 | 29 | 243 | 3.2 | 11.3 | 0.00 | 0.00 | 0.00 | 67 | 1011.9 |
| 20260905144253 | 29 | 269 | 6.4 | 11.3 | 0.00 | 0.00 | 0.00 | 66 | 1011.9 |
| 20260905143753 | 28 | 267 | 1.6 | 9.7 | 0.00 | 0.00 | 0.00 | 69 | 1012.0 |
| 20260905142753 | 28 | 281 | 4.8 | 9.7 | 0.00 | 0.00 | 0.00 | 69 | 1012.2 |
| 20260905142255 | 28 | 288 | 1.6 | 9.7 | 0.00 | 0.00 | 0.00 | 70 | 1012.2 |
| 20260905141253 | 27 | 228 | 0.0 | 4.8 | 0.00 | 0.00 | 0.00 | 74 | 1012.2 |
| 20260905140753 | 27 | 278 | 0.0 | 0.0 | 0.00 | 0.00 | 0.00 | 77 | 1012.1 |
| 20260905140253 | 26 | 278 | 3.2 | 9.7 | 0.00 | 0.00 | 0.00 | 77 | 1012.2 |
| 20260905135753 | 26 | 279 | 6.4 | 9.7 | 0.00 | 0.00 | 0.00 | 77 | 1012.0 |
| 20260905135253 | 26 | 239 | 0.0 | 0.0 | 0.00 | 0.00 | 0.00 | 79 | 1012.0 |
| 20260905134253 | 26 | 277 | 0.0 | 0.0 | 0.00 | 0.00 | 0.00 | 81 | 1012.2 |
| 20260905133253 | 25 | 341 | 0.0 | 0.0 | 0.00 | 0.00 | 0.00 | 84 | 1012.3 |
| 20260905132753 | 25 | 341 | 0.0 | 0.0 | 0.00 | 0.00 | 0.00 | 86 | 1012.3 |
| 20260905131753 | 24 | 293 | 0.0 | 0.0 | 0.00 | 0.00 | 0.00 | 90 | 1012.3 |
| 20260905131253 | 24 | 231 | 0.0 | 0.0 | 0.00 | 0.00 | 0.00 | 91 | 1012.4 |
| 20260905130752 | 24 | 234 | 0.0 | 0.0 | 0.00 | 0.00 | 0.00 | 92 | 1012.5 |
| 20260905130253 | 23 | 234 | 0.0 | 0.0 | 0.00 | 0.00 | 0.00 | 94 | 1012.6 |
| 20260905125752 | 23 | 234 | 0.0 | 0.0 | 0.00 | 0.00 | 0.00 | 95 | 1012.7 |
| 20260905125253 | 23 | 43 | 0.0 | 0.0 | 0.00 | 0.00 | 0.00 | 97 | 1012.8 |
| 20260905124753 | 23 | 43 | 0.0 | 0.0 | 0.00 | 0.00 | 0.00 | 100 | 1012.8 |
| 20260905124252 | 23 | 43 | 0.0 | 0.0 | 0.00 | 0.00 | 0.00 | 100 | 1012.8 |
| 20260905123753 | 23 | 43 | 0.0 | 0.0 | 0.00 | 0.00 | 0.00 | 100 | 1012.9 |
| 20260905123252 | 22 | 37 | 0.0 | 0.0 | 0.00 | 0.00 | 0.00 | 100 | 1012.8 |
| 20260905122252 | 22 | 37 | 0.0 | 0.0 | 0.00 | 0.00 | 0.00 | 100 | 1012.8 |
| 20260905121753 | 22 | 36 | 0.0 | 0.0 | 0.00 | 0.00 | 0.00 | 100 | 1012.8 |
| 20260905121253 | 22 | 16 | 0.0 | 0.0 | 0.00 | 0.00 | 0.00 | 100 | 1012.8 |
| 20260905120753 | 21 | 347 | 0.0 | 0.0 | 0.00 | 0.00 | 0.00 | 100 | 1012.6 |
| 20260905120253 | 21 | 328 | 0.0 | 0.0 | 0.00 | 0.00 | 0.00 | 100 | 1012.5 |
| 20260905115753 | 20 | 328 | 0.0 | 0.0 | 0.00 | 0.00 | 0.00 | 100 | 1012.4 |
| 20260905114753 | 20 | 328 | 0.0 | 0.0 | 0.00 | 0.00 | 0.00 | 100 | 1012.3 |
| 20260905114253 | 20 | 328 | 0.0 | 0.0 | 0.00 | 0.00 | 0.00 | 100 | 1012.2 |
| 20260905113253 | 20 | 328 | 0.0 | 0.0 | 0.00 | 0.00 | 0.00 | 100 | 1012.0 |
| 20260905112753 | 20 | 328 | 0.0 | 0.0 | 0.00 | 0.00 | 0.00 | 100 | 1012.0 |
| 20260905112253 | 19 | 61 | 0.0 | 0.0 | 0.00 | 0.00 | 0.00 | 100 | 1012.0 |
| 20260905111753 | 19 | 61 | 0.0 | 0.0 | 0.00 | 0.00 | 0.00 | 100 | 1011.9 |
| 20260905111253 | 19 | 61 | 0.0 | 0.0 | 0.00 | 0.00 | 0.00 | 100 | 1011.9 |
| 20260905110253 | 19 | 61 | 0.0 | 0.0 | 0.00 | 0.00 | 0.00 | 100 | 1011.9 |
| 20260905105753 | 19 | 61 | 0.0 | 0.0 | 0.00 | 0.00 | 0.00 | 100 | 1011.9 |
| 20260905105253 | 19 | 61 | 0.0 | 0.0 | 0.00 | 0.00 | 0.00 | 100 | 1011.8 |
| 20260905104753 | 19 | 61 | 0.0 | 0.0 | 0.00 | 0.00 | 0.00 | 100 | 1011.8 |
| 20260905103753 | 19 | 61 | 0.0 | 0.0 | 0.00 | 0.00 | 0.00 | 100 | 1011.5 |
| 20260905103253 | 19 | 61 | 0.0 | 0.0 | 0.00 | 0.00 | 0.00 | 100 | 1011.6 |
| 20260905102753 | 19 | 61 | 0.0 | 0.0 | 0.00 | 0.00 | 0.00 | 100 | 1011.7 |
| 20260905101753 | 19 | 61 | 0.0 | 0.0 | 0.00 | 0.00 | 0.00 | 100 | 1011.6 |
| 20260905101253 | 19 | 61 | 0.0 | 0.0 | 0.00 | 0.00 | 0.00 | 100 | 1011.5 |
| 20260905100753 | 19 | 61 | 0.0 | 0.0 | 0.00 | 0.00 | 0.00 | 100 | 1011.5 |
| 20260905095253 | 19 | 61 | 0.0 | 0.0 | 0.00 | 0.00 | 0.00 | 100 | 1011.6 |
| 20260905094753 | 19 | 61 | 0.0 | 0.0 | 0.00 | 0.00 | 0.00 | 100 | 1011.4 |
| 20260905094254 | 19 | 61 | 0.0 | 0.0 | 0.00 | 0.00 | 0.00 | 100 | 1011.3 |
| 20260905093753 | 19 | 61 | 0.0 | 0.0 | 0.00 | 0.00 | 0.00 | 100 | 1011.3 |
| 20260905093253 | 19 | 61 | 0.0 | 0.0 | 0.00 | 0.00 | 0.00 | 100 | 1011.3 |
| 20260905092753 | 19 | 61 | 0.0 | 0.0 | 0.00 | 0.00 | 0.00 | 100 | 1011.2 |
| 20260905092253 | 19 | 61 | 0.0 | 0.0 | 0.00 | 0.00 | 0.00 | 100 | 1011.1 |
| 20260905091754 | 20 | 61 | 0.0 | 0.0 | 0.00 | 0.00 | 0.00 | 100 | 1011.0 |
| 20260905091253 | 20 | 61 | 0.0 | 0.0 | 0.00 | 0.00 | 0.00 | 100 | 1011.0 |
| 20260905090753 | 20 | 61 | 0.0 | 0.0 | 0.00 | 0.00 | 0.00 | 100 | 1011.0 |
| 20260905085753 | 20 | 61 | 0.0 | 0.0 | 0.00 | 0.00 | 0.00 | 100 | 1011.2 |
| 20260905085254 | 20 | 61 | 0.0 | 0.0 | 0.00 | 0.00 | 0.00 | 100 | 1011.2 |
| 20260905084753 | 20 | 61 | 0.0 | 0.0 | 0.00 | 0.00 | 0.00 | 100 | 1011.2 |
| 20260905084253 | 20 | 61 | 0.0 | 0.0 | 0.00 | 0.00 | 0.00 | 100 | 1011.2 |
| 20260905083754 | 20 | 61 | 0.0 | 0.0 | 0.00 | 0.00 | 0.00 | 100 | 1011.2 |
| 20260905083253 | 20 | 61 | 0.0 | 0.0 | 0.00 | 0.00 | 0.00 | 100 | 1011.3 |
| 20260905082753 | 20 | 61 | 0.0 | 0.0 | 0.00 | 0.00 | 0.00 | 100 | 1011.3 |
| 20260905082253 | 20 | 61 | 0.0 | 0.0 | 0.00 | 0.00 | 0.00 | 100 | 1011.4 |
| 20260905081753 | 20 | 61 | 0.0 | 0.0 | 0.00 | 0.00 | 0.00 | 100 | 1011.4 |
| 20260905081254 | 20 | 61 | 0.0 | 0.0 | 0.00 | 0.00 | 0.00 | 100 | 1011.3 |
| 20260905080753 | 20 | 61 | 0.0 | 0.0 | 0.00 | 0.00 | 0.00 | 100 | 1011.4 |
| 20260905080253 | 20 | 61 | 0.0 | 0.0 | 0.00 | 0.00 | 0.00 | 100 | 1011.4 |
| 20260905075253 | 20 | 61 | 0.0 | 0.0 | 0.00 | 0.00 | 0.00 | 100 | 1011.6 |
| 20260905074754 | 20 | 61 | 0.0 | 0.0 | 0.00 | 0.00 | 0.00 | 100 | 1011.6 |
| 20260905074253 | 20 | 61 | 0.0 | 0.0 | 0.00 | 0.00 | 0.00 | 100 | 1011.6 |
| 20260905073753 | 20 | 61 | 0.0 | 0.0 | 0.00 | 0.00 | 0.00 | 100 | 1011.8 |
| 20260905072753 | 20 | 61 | 0.0 | 0.0 | 0.00 | 0.00 | 0.00 | 100 | 1011.9 |